Theta_e
305 303 306 308 308 309 309 309 306 304 307 306 306 310 309 309 304 302 310 305 307 310 312 315 318 323 324 326 327 327 327 327 328 328 327 326 327 328 329 330 331 332 332 333 335 336 337 339 338 338 338 339 340 341 340 341 339 338 340 339 338 336 336 336 336 337 338 339 339 339 339 340 340 341 341 341 341 340 340 340 340 340 340 339 339 340 340
304 304 307 306 308 306 307 307 308 307 305 306 307 309 308 307 309 311 311 310 309 311 313 315 319 321 319 323 326 325 324 323 326 326 326 326 326 327 328 329 330 332 333 335 336 337 338 338 338 337 338 339 339 339 338 338 339 339 340 338 336 335 335 335 336 338 338 339 339 340 340 340 340 340 339 339 339 338 339 339 340 340 341 340 339 338 338
305 305 307 307 307 308 305 304 305 304 305 305 305 306 306 308 307 308 308 309 309 315 317 317 319 322 320 320 320 321 323 324 324 325 325 327 327 327 328 330 331 332 333 335 336 336 337 338 338 338 339 339 340 338 337 337 339 340 339 336 336 335 334 336 337 338 338 339 339 339 340 340 340 339 338 338 338 339 340 340 340 341 340 339 338 338 337
303 304 305 305 307 306 306 307 307 306 304 305 306 307 311 308 308 313 309 306 308 316 319 316 318 317 319 319 322 322 322 323 325 324 326 327 327 328 328 330 331 332 332 334 335 336 337 339 339 339 338 339 340 338 338 338 337 338 337 335 333 334 334 336 337 337 338 339 339 339 340 340 339 338 336 336 338 339 339 340 341 341 340 339 338 338 337
304 302 306 305 305 305 303 304 307 309 308 310 308 309 311 312 313 308 305 306 314 318 322 318 321 320 321 321 321 322 323 324 325 325 326 327 328 329 330 331 331 331 332 334 336 337 339 339 338 339 340 339 338 340 340 340 340 337 335 334 335 334 335 336 336 338 338 337 337 338 339 339 337 336 336 336 337 338 338 339 340 340 339 338 338 338 338
304 303 304 305 303 297 299 313 312 312 308 307 306 307 309 313 312 310 312 313 318 318 317 316 319 321 322 322 324 325 325 324 325 326 328 329 329 330 330 331 331 332 334 335 336 338 340 340 338 340 341 340 340 341 341 340 337 337 336 336 335 333 334 335 337 338 337 337 336 338 338 337 336 335 336 337 337 338 338 340 339 339 339 339 339 339 339
302 304 305 301 296 298 313 313 311 310 310 312 311 314 315 315 315 314 311 313 316 319 319 319 321 321 321 322 322 322 323 326 327 327 327 329 329 329 330 331 332 334 335 336 337 337 337 337 338 338 339 339 340 339 338 336 336 335 335 335 334 334 334 335 337 336 336 336 336 337 337 336 335 336 336 337 337 338 338 338 337 337 337 336 337 337 338
304 303 302 294 298 308 311 313 312 314 311 310 310 309 312 314 313 316 314 316 319 321 319 319 320 320 321 322 324 325 325 325 326 326 327 328 329 330 331 332 333 335 335 336 336 337 338 337 336 336 337 338 336 337 338 336 336 335 335 334 333 334 334 335 335 336 336 335 337 337 335 335 336 336 337 338 337 338 337 336 338 338 338 338 337 336 337
302 304 302 301 308 306 310 308 310 310 312 310 309 304 310 320 318 315 315 318 320 319 319 319 320 321 320 320 324 325 324 325 327 328 328 328 329 331 333 334 335 338 338 338 338 339 338 336 336 336 336 336 336 337 336 335 335 334 333 333 333 334 334 335 336 337 336 335 336 336 335 335 335 334 334 335 336 338 336 335 335 336 336 335 337 336 336
306 303 300 301 300 298 305 317 320 315 314 317 320 313 308 321 319 317 318 318 322 321 319 319 320 322 320 317 321 324 323 325 326 328 329 329 331 333 333 335 335 337 337 337 337 336 335 335 336 337 337 336 336 336 336 335 334 333 333 332 334 335 335 336 337 338 337 336 335 335 336 334 332 332 333 336 336 337 334 332 331 332 333 334 337 338 336
302 302 299 299 298 302 313 314 316 313 314 314 316 308 303 318 323 319 318 318 321 321 320 321 321 319 313 314 320 326 324 324 325 325 326 326 327 330 331 331 332 334 335 336 334 335 335 334 336 337 337 336 335 335 336 334 333 333 334 335 335 335 336 337 338 337 336 336 335 335 335 334 333 332 333 334 334 335 333 332 332 335 335 335 335 335 332
305 304 300 298 304 303 312 315 313 309 313 315 311 298 300 318 320 319 319 320 322 321 322 321 321 319 312 314 321 324 325 325 326 328 328 328 328 329 331 332 334 336 336 335 334 333 333 335 337 337 336 335 334 335 334 334 333 334 335 336 339 338 337 336 336 336 336 336 337 336 336 336 336 334 334 333 332 330 332 331 330 330 333 333 333 332 332
303 301 302 302 304 311 312 311 311 310 313 312 302 294 305 322 323 321 322 323 324 324 322 321 319 324 327 326 324 322 325 325 326 328 330 330 330 330 328 329 332 332 333 333 334 335 336 337 337 335 334 334 334 336 337 336 335 335 337 339 338 336 336 335 335 336 337 337 337 338 338 336 334 333 334 332 331 332 329 329 330 332 331 331 330 332 332
302 303 300 301 305 311 313 311 310 313 309 301 299 311 325 326 323 321 322 323 324 324 324 323 326 324 322 323 323 323 324 326 329 327 327 327 327 328 331 333 334 332 331 333 334 334 337 336 334 334 335 334 335 337 336 335 337 338 340 338 337 336 336 337 336 336 337 338 339 338 339 336 335 334 334 333 331 331 329 330 331 331 332 331 330 331 332
300 302 299 296 291 307 309 311 311 312 306 308 321 325 318 318 325 322 321 323 323 324 324 324 326 323 319 320 323 324 326 327 328 328 327 327 328 327 329 330 332 332 332 331 331 333 333 332 333 333 333 334 336 336 335 337 339 340 338 336 336 336 336 335 336 337 338 339 338 338 337 336 334 332 332 332 333 333 332 330 330 329 329 329 328 327 328
299 299 296 295 306 313 311 313 309 312 315 320 317 319 318 322 321 323 324 324 325 324 326 322 322 324 324 324 326 327 327 328 329 330 331 331 331 330 329 328 331 332 333 334 333 333 330 332 333 333 334 334 335 335 335 339 339 337 335 335 335 335 336 337 337 338 337 338 339 338 336 335 332 332 331 331 332 333 331 329 327 326 327 328 327 325 324
303 302 306 314 317 313 314 315 316 319 320 319 320 319 319 323 322 324 324 325 324 325 327 325 325 322 325 327 327 329 329 328 327 329 331 330 330 330 329 327 330 330 331 334 334 332 332 333 334 335 334 334 335 334 337 339 336 335 334 335 336 335 336 336 338 337 336 336 337 335 332 333 330 329 328 330 329 332 331 328 327 326 326 326 326 325 325
312 313 312 313 314 315 315 315 316 315 316 317 318 317 319 321 324 324 323 325 324 324 327 324 324 326 326 326 324 325 326 328 329 329 329 329 330 328 328 329 329 329 330 330 331 331 333 333 333 334 334 334 334 336 338 336 336 335 335 335 334 334 335 336 335 334 333 334 336 333 331 331 331 331 328 327 327 329 328 327 327 326 325 324 323 324 324
303 300 315 313 314 314 315 315 317 317 317 318 320 321 320 323 322 321 323 325 325 324 324 326 325 326 324 326 328 329 329 329 330 329 331 331 329 329 330 330 329 329 329 328 329 330 330 332 331 330 332 332 334 336 335 334 334 335 334 333 332 334 335 334 334 333 332 331 331 328 329 329 329 328 328 328 328 327 327 325 325 324 323 323 322 322 322
305 306 314 312 313 316 317 315 315 317 318 319 320 323 325 324 322 323 323 324 323 323 323 327 327 325 325 326 328 329 330 331 331 331 333 331 330 329 327 327 328 329 329 330 329 330 330 332 330 329 329 331 331 332 330 330 330 332 331 332 332 333 332 332 331 332 332 331 330 325 325 325 323 325 326 326 326 326 324 324 323 322 322 322 320 320 319
308 313 314 310 311 317 318 317 318 318 319 320 319 320 321 321 321 320 321 323 323 322 324 326 327 325 327 329 330 323 327 328 328 330 332 331 330 328 327 327 328 328 330 329 331 331 330 329 328 328 328 327 328 330 330 330 332 332 333 333 332 332 330 329 328 332 332 331 330 326 326 329 329 330 327 326 327 323 320 320 320 321 322 318 317 317 319
304 303 306 308 303 304 309 311 315 319 319 318 320 319 320 321 322 321 320 319 321 322 324 325 326 327 327 326 327 319 325 328 330 331 331 330 327 327 326 325 327 329 329 329 329 329 329 327 328 328 328 329 329 328 330 332 333 333 333 331 329 326 326 325 323 324 327 326 327 327 323 325 326 326 312 302 316 323 315 306 302 300 302 312 310 312 315
302 307 308 311 309 310 312 315 319 320 318 318 320 323 322 322 324 322 321 318 319 319 320 325 327 328 328 328 331 326 322 329 331 331 329 327 326 325 326 325 326 326 327 327 328 326 327 327 327 328 328 328 330 329 332 332 331 333 331 329 327 325 326 323 324 325 324 324 328 329 327 327 327 324 319 313 298 302 306 306 300 295 295 296 299 301 308
306 308 308 311 311 309 312 314 316 318 321 318 316 317 319 322 322 322 323 323 321 322 324 322 327 330 331 330 328 327 327 326 325 326 326 327 327 326 327 326 326 326 326 327 327 327 328 328 328 329 327 328 330 328 330 330 332 332 331 328 327 326 325 325 328 328 328 328 327 326 326 327 326 324 323 317 313 297 296 300 298 296 295 294 294 295 297
306 309 310 313 315 315 316 317 317 319 322 319 317 318 319 319 319 322 323 324 326 324 324 324 323 324 327 325 324 326 326 325 325 324 327 327 326 326 325 325 326 326 327 327 328 328 328 328 328 327 327 328 329 327 331 330 331 330 330 328 324 324 326 328 327 329 327 329 328 327 325 324 325 325 324 322 317 314 307 295 297 297 297 296 295 296 295
308 309 312 314 316 316 319 317 318 320 322 322 322 322 323 323 324 323 323 326 324 323 324 321 318 318 321 321 322 324 325 326 328 327 326 325 324 322 321 322 323 325 325 326 326 326 326 327 328 327 328 329 329 330 328 331 331 330 329 329 328 327 327 327 329 328 328 328 327 327 327 326 326 323 326 324 326 321 317 316 313 303 297 297 298 300 298
310 313 310 308 307 309 312 309 308 314 315 316 318 324 325 325 325 323 322 320 319 319 319 320 320 320 323 325 325 325 327 328 328 325 323 322 320 319 319 320 322 323 322 322 322 324 325 327 327 328 328 328 329 329 330 330 329 329 329 329 328 327 327 327 327 327 326 328 326 326 326 325 325 324 323 325 323 321 321 319 318 317 317 317 303 297 306
311 312 310 306 306 307 310 312 315 315 315 315 319 318 320 324 322 318 317 318 318 319 319 320 320 322 323 323 326 325 324 325 324 324 323 321 319 320 321 320 320 321 320 321 322 326 328 327 326 326 326 327 327 329 328 329 328 327 327 326 326 326 327 326 325 326 328 327 329 327 325 324 324 323 322 321 319 319 316 317 317 317 316 314 316 307 302
311 311 314 312 311 312 313 315 316 316 317 319 320 319 318 318 319 317 317 319 320 320 319 319 322 324 324 324 324 324 324 324 323 323 322 322 322 321 321 321 321 320 321 323 324 326 326 326 326 325 325 326 326 326 326 326 326 326 326 325 326 327 328 326 328 327 326 325 325 325 323 322 322 321 320 319 318 317 315 313 313 313 313 313 314 314 310
309 312 311 312 313 312 312 312 312 313 313 316 316 318 318 318 318 317 320 320 319 319 321 323 322 322 322 323 323 321 322 321 322 321 322 321 322 323 322 322 321 322 322 323 323 324 324 324 324 324 324 324 324 325 325 325 325 326 326 326 327 327 327 326 327 324 323 323 321 320 322 322 321 319 318 318 316 314 312 311 310 310 310 310 308 307 306
308 310 311 311 310 311 310 312 314 314 315 316 316 315 317 319 318 319 319 320 320 321 322 322 323 324 323 322 323 322 322 322 322 322 321 320 319 320 321 322 320 321 320 320 321 321 322 323 323 323 324 324 323 324 324 324 324 324 324 324 324 320 318 319 321 324 323 321 320 320 319 318 317 317 315 314 313 312 310 309 309 308 308 308 306 305 304
308 309 309 310 310 310 311 314 315 314 315 315 315 314 316 317 317 318 320 319 319 321 323 323 323 323 324 324 323 323 323 322 322 321 320 319 319 319 321 322 322 320 320 321 321 322 322 322 321 323 324 323 322 323 324 323 324 323 323 323 324 323 320 318 321 320 321 320 320 318 318 317 316 317 314 313 313 311 310 309 307 308 307 305 303 303 303
308 307 308 310 311 311 311 314 313 313 314 315 316 316 318 319 319 320 321 321 320 322 322 323 323 323 321 322 323 322 321 320 319 319 318 318 318 319 320 320 320 320 320 320 320 320 321 320 320 321 322 322 322 321 320 322 322 322 323 323 322 321 320 318 318 318 318 317 317 316 316 317 316 314 313 313 312 312 310 308 307 306 306 304 303 302 301
310 309 310 311 311 309 310 310 312 315 316 316 316 317 317 318 319 321 322 322 320 319 320 321 322 322 322 322 322 321 320 320 318 316 316 317 317 318 319 319 319 318 318 319 319 320 320 321 322 322 323 322 323 323 323 322 322 322 322 321 319 317 316 316 316 317 316 315 315 316 315 314 313 312 312 312 311 311 310 308 307 306 305 304 303 302 299
314 314 313 313 313 312 312 311 311 311 312 314 315 316 317 318 320 321 321 320 320 320 321 322 322 322 322 321 320 320 320 319 317 316 315 316 317 317 317 317 317 317 316 316 317 318 320 322 322 321 321 320 320 321 321 321 321 320 319 318 317 316 315 315 315 315 314 313 313 313 312 311 311 311 311 310 310 309 308 308 306 305 304 303 303 303 301
315 314 314 314 314 314 313 313 312 313 313 314 316 316 317 318 319 319 319 320 320 319 319 320 320 319 320 320 319 318 318 316 316 316 315 316 316 317 317 316 316 315 315 315 316 318 320 321 320 320 320 319 319 319 319 318 318 316 316 315 315 314 314 314 313 312 313 312 311 311 310 310 310 309 309 308 308 308 307 306 305 304 303 303 303 302 302
316 315 314 314 314 315 314 314 314 314 316 318 317 316 317 318 320 321 320 317 318 319 319 318 318 318 317 318 318 317 318 317 316 316 316 316 316 316 315 315 315 314 314 313 315 318 320 319 318 317 318 319 317 317 317 316 313 313 313 312 312 312 311 311 310 310 309 310 309 309 309 308 307 307 307 306 305 305 305 304 304 303 302 302 302 302 302
315 315 315 314 314 314 313 314 315 317 316 316 317 318 319 320 321 319 317 317 317 318 318 318 317 317 317 317 317 316 316 316 315 315 315 315 316 315 314 315 314 314 313 312 316 318 318 317 316 317 317 316 316 315 314 313 313 312 312 311 312 310 309 308 308 307 307 307 308 307 307 306 305 304 304 304 304 304 303 303 302 301 300 301 301 302 302
314 315 315 315 315 315 315 316 316 316 316 316 317 319 321 321 319 317 316 315 316 318 317 317 316 316 316 315 315 315 315 315 315 314 314 313 314 313 312 312 313 313 314 316 316 316 317 316 317 315 315 315 315 314 313 312 312 310 310 310 309 307 307 308 307 307 307 307 306 306 306 305 304 303 303 303 303 302 302 301 301 301 300 300 299 299 299
314 314 314 314 314 315 315 315 315 316 316 318 319 319 317 315 314 314 315 315 316 317 316 316 315 313 314 314 313 313 314 314 314 313 313 312 313 312 312 313 314 315 316 315 316 316 315 313 314 314 314 314 314 313 313 312 311 311 311 309 309 308 307 307 306 306 305 305 305 304 303 303 303 302 302 302 301 301 300 300 300 300 299 299 299 299 298
314 314 314 314 313 313 313 312 312 313 314 314 315 315 316 315 314 315 316 316 315 315 316 316 315 314 314 313 313 313 314 314 312 311 312 312 311 310 309 309 313 315 315 315 315 314 313 312 312 312 312 312 311 311 311 310 310 309 309 309 308 307 307 306 305 304 304 303 303 302 302 302 301 301 301 300 300 300 300 299 299 299 299 298 298 298 298
315 316 314 313 313 313 313 313 314 314 314 314 315 315 316 318 317 317 317 316 315 315 316 317 317 315 314 313 313 313 312 312 311 311 312 312 311 310 308 309 313 314 316 315 315 313 313 312 312 311 311 311 311 310 309 309 308 308 308 308 308 307 306 306 305 304 304 303 302 301 301 301 300 300 300 300 299 299 298 299 299 299 298 298 298 297 297
316 316 315 315 315 316 315 316 315 314 313 312 313 314 315 316 315 315 315 316 316 316 316 315 315 314 313 312 312 311 310 310 310 310 309 310 311 313 311 311 313 314 313 313 313 312 311 312 311 310 310 310 309 309 308 307 307 307 306 306 306 306 305 305 304 303 302 302 301 300 300 299 299 299 299 299 299 299 299 298 298 298 298 297 297 297 297
316 316 316 316 316 316 316 315 315 316 315 314 313 313 313 313 314 315 315 315 315 316 315 314 314 313 313 313 312 311 310 309 309 309 308 308 310 312 314 313 313 313 312 312 311 310 310 310 310 310 311 309 308 307 306 305 305 305 305 305 305 305 304 303 303 302 301 300 300 299 299 299 298 298 298 298 298 298 298 298 298 298 297 297 297 297 296
316 316 316 315 315 315 315 315 315 315 315 314 314 314 315 315 316 316 316 316 316 315 315 314 313 313 313 313 313 313 312 311 310 309 307 307 306 307 312 314 313 312 312 311 311 310 310 310 310 309 308 307 306 305 305 304 304 303 304 304 304 304 303 303 302 302 301 301 301 300 299 299 298 298 298 298 298 298 297 297 298 297 296 296 297 296 296
315 316 317 316 315 314 314 315 315 315 314 314 314 314 315 315 315 316 317 316 316 315 315 314 314 314 314 314 314 313 311 311 311 312 313 311 309 310 313 313 313 312 312 311 310 309 310 310 308 307 306 306 305 304 304 304 303 302 302 302 303 303 302 302 302 301 301 301 300 299 299 298 298 298 298 298 297 297 297 297 296 297 296 296 296 295 295
314 314 315 315 315 314 315 315 315 315 314 313 313 312 313 315 316 316 317 316 316 315 315 315 315 316 316 314 313 310 308 308 309 311 311 312 314 313 313 313 313 312 311 309 309 309 309 309 308 307 306 306 304 303 302 302 301 301 301 301 301 302 301 302 301 301 300 300 300 299 298 298 298 298 298 297 297 297 297 296 296 295 296 296 295 295 295
313 313 313 314 313 314 315 315 315 314 314 314 314 313 314 315 315 315 315 315 315 315 315 315 315 315 316 314 314 313 312 310 307 309 311 311 312 312 311 312 312 312 310 310 309 310 309 308 307 306 305 305 303 302 302 301 300 300 300 301 300 300 300 300 300 300 300 299 299 299 298 297 297 297 297 297 296 296 296 296 295 296 295 295 295 295 294
314 314 313 314 314 315 314 315 315 315 314 314 314 313 313 313 313 313 313 314 314 314 314 314 314 314 315 314 314 313 314 315 314 311 312 312 311 311 311 312 312 311 309 309 308 309 309 307 306 305 305 303 302 302 301 300 300 300 300 299 300 300 299 299 299 299 299 299 298 298 298 297 297 297 296 296 296 296 295 295 296 295 295 294 294 294 294
313 314 314 314 314 315 316 315 314 315 315 314 314 312 313 313 312 312 313 313 314 315 314 314 314 314 313 313 313 313 314 313 313 314 313 312 312 312 311 312 312 310 309 309 309 309 309 307 305 305 305 303 302 301 301 300 300 300 299 299 299 299 299 299 300 299 299 298 297 297 297 296 296 296 296 296 295 296 295 295 295 294 292 293 294 294 294
314 315 315 316 316 317 317 317 317 317 316 315 314 313 313 313 313 313 313 313 314 313 312 313 314 313 313 313 312 312 312 312 313 313 312 311 311 311 311 310 310 310 310 308 308 308 308 307 306 306 304 303 301 301 300 300 300 300 299 300 300 299 299 298 298 298 297 297 297 297 297 296 296 296 296 295 295 295 295 295 294 295 294 294 295 295 294
312 313 313 313 314 314 315 314 315 316 316 316 315 315 314 314 313 313 313 314 313 313 312 312 311 310 311 311 310 310 311 311 312 312 311 311 310 310 310 309 309 309 308 308 308 308 308 307 305 305 303 302 302 301 300 300 300 300 300 300 299 299 299 299 298 298 298 298 297 297 297 296 296 296 296 295 296 296 295 295 295 295 295 294 295 295 294
Wind_Speed
1 1 3 1 1 3 4 6 10 10 8 8 11 5 5 7 6 9 3 5 5 6 6 7 8 5 5 7 8 9 8 7 8 10 12 13 14 13 13 11 11 11 11 10 9 9 9 8 8 8 6 6 5 5 6 5 6 7 6 5 6 6 6 6 7 7 5 5 4 5 5 5 5 5 5 6 6 6 6 7 6 7 7 7 8 8 7
4 3 0 1 4 4 5 5 7 6 9 8 6 3 5 9 6 2 1 5 11 9 7 9 10 1 5 5 2 3 7 10 10 12 13 14 14 14 14 13 12 11 11 10 10 9 9 9 9 8 7 7 7 7 8 7 7 7 4 5 6 6 6 7 6 6 5 5 5 5 5 5 5 5 6 6 6 7 7 7 7 6 7 6 7 8 8
2 2 2 3 4 4 6 2 1 2 3 3 2 1 2 1 5 7 7 7 12 7 10 13 9 2 4 6 7 8 8 9 12 13 13 13 14 14 13 13 12 10 10 9 9 9 10 10 10 8 7 7 7 8 9 9 8 6 5 5 6 6 7 7 6 5 5 5 4 5 5 5 5 5 6 6 6 6 6 6 7 6 6 7 7 7 7
2 2 2 4 4 4 3 2 5 5 6 6 4 4 5 4 4 2 1 5 7 4 3 5 6 5 6 9 8 7 7 9 11 13 13 14 14 14 14 13 11 10 10 10 11 11 11 10 9 8 8 8 7 9 8 8 7 5 5 5 6 6 6 6 6 5 5 4 5 5 5 5 5 5 6 6 6 6 6 6 6 6 7 7 7 6 6
2 2 0 5 5 3 3 7 11 11 6 2 3 0 3 9 5 6 6 8 4 5 1 4 4 4 6 7 6 6 6 9 12 13 14 14 14 14 13 13 13 12 13 12 12 11 10 9 9 10 9 7 9 9 8 7 4 5 6 6 5 6 6 6 6 5 4 4 5 6 6 5 5 5 6 6 6 5 6 6 6 6 7 7 6 6 6
3 3 3 2 4 7 5 2 4 7 10 11 8 6 8 8 7 4 3 6 3 3 4 6 8 6 4 3 3 3 5 8 10 11 12 12 13 12 13 13 14 12 9 8 10 11 10 10 10 8 8 9 8 7 6 4 5 5 5 5 5 6 6 6 6 5 4 5 5 6 5 4 5 6 5 5 5 5 5 5 6 6 7 7 6 6 5
4 3 3 4 9 7 4 2 2 1 3 5 7 2 3 4 7 7 8 10 9 10 8 7 6 4 6 6 7 6 8 9 9 12 12 12 12 13 13 12 10 10 10 9 8 8 9 9 8 7 7 8 7 6 5 5 5 5 5 5 6 6 6 7 6 5 5 5 5 5 4 4 5 5 5 5 5 4 4 5 6 6 6 6 6 6 6
4 3 5 5 3 2 4 2 3 3 5 4 2 5 8 9 10 10 9 11 11 6 5 4 3 4 4 4 5 7 7 10 9 10 11 13 13 13 12 13 11 10 10 11 12 12 9 7 8 9 9 8 8 8 6 6 5 5 5 5 6 6 7 7 7 6 6 5 5 4 4 4 5 5 5 5 5 4 5 5 5 5 5 5 6 7 6
4 2 7 5 4 4 3 2 4 7 4 6 4 7 4 5 5 9 7 9 7 4 3 3 2 3 2 3 4 5 7 8 9 10 10 13 14 13 11 12 12 11 11 10 10 6 6 8 9 9 9 8 9 7 6 6 5 5 5 6 7 7 7 7 7 6 5 5 4 4 4 5 5 5 5 5 4 3 4 5 6 6 5 5 5 6 6
1 3 3 2 4 8 4 7 0 1 2 2 3 4 7 4 6 7 9 9 4 3 2 2 3 3 1 3 2 4 7 8 9 7 6 6 5 5 7 6 5 5 6 6 5 7 9 10 11 8 8 8 8 7 7 6 6 6 6 7 7 7 7 7 6 5 5 4 5 5 5 5 6 5 4 4 4 3 4 5 6 6 6 6 6 6 6
3 3 5 5 6 4 1 7 2 3 1 5 6 2 8 4 6 9 9 8 5 6 5 5 5 4 4 4 1 3 7 8 8 9 8 7 8 8 9 10 10 9 8 8 8 8 9 11 11 10 9 9 8 8 7 7 7 6 7 7 7 7 7 6 6 5 5 5 5 5 5 5 5 5 4 4 4 3 4 4 5 5 5 6 6 6 6
4 5 5 7 4 3 3 5 2 1 2 4 2 7 6 3 6 8 9 9 8 7 6 7 5 6 6 4 2 3 8 8 8 9 9 8 8 8 7 7 7 6 5 5 7 10 11 13 9 10 9 9 9 8 7 6 7 7 8 8 6 4 5 5 5 5 5 5 6 6 6 5 4 4 3 3 3 3 4 4 4 5 5 5 7 7 6
4 6 4 2 3 4 6 5 3 4 3 5 7 6 8 3 3 7 9 9 8 9 9 8 6 4 2 2 2 4 7 7 6 6 7 7 6 7 9 8 7 6 7 8 10 12 11 7 7 8 8 9 9 8 6 6 8 8 7 4 2 4 4 5 5 6 6 6 6 6 5 4 3 3 3 3 3 3 4 3 4 5 5 6 6 7 6
5 3 5 4 2 2 2 3 3 5 6 5 8 4 2 1 5 6 7 6 7 10 10 8 2 4 2 2 3 5 7 7 6 6 6 5 5 5 5 5 7 7 8 9 10 10 7 5 6 7 8 9 8 7 6 8 10 7 4 2 3 4 5 5 5 6 6 6 5 5 4 4 4 4 3 2 2 3 3 3 5 5 5 5 6 6 6
3 2 2 0 3 2 3 10 5 1 4 4 2 2 2 2 3 7 7 7 8 9 8 7 4 4 4 4 3 5 5 5 6 7 7 8 9 9 8 8 10 8 8 9 11 9 4 6 7 7 9 9 8 7 8 10 7 4 2 3 4 5 5 5 5 5 5 6 5 4 4 4 4 4 2 2 2 2 2 3 4 6 6 6 6 7 7
2 3 4 2 0 4 2 5 4 7 7 2 1 2 4 3 3 5 5 6 8 10 9 11 7 5 4 2 3 3 4 4 3 4 5 5 5 6 8 7 5 7 8 8 6 2 3 4 6 8 9 9 7 7 10 7 4 3 3 5 5 5 5 5 5 5 5 5 4 3 3 3 4 3 3 2 2 1 2 3 4 5 6 5 6 7 7
4 2 2 1 1 2 2 3 6 6 6 6 5 3 6 5 5 3 4 7 7 9 9 10 9 7 4 4 4 4 5 5 4 4 4 4 4 3 3 3 2 2 5 6 4 2 2 5 5 7 8 9 8 9 8 4 4 5 6 6 5 4 4 4 4 4 4 5 4 3 5 5 4 3 3 2 2 1 2 3 3 5 5 6 6 6 7
3 4 6 5 5 4 6 6 6 10 11 7 5 7 7 7 4 5 5 5 6 7 6 9 4 4 6 5 4 3 3 3 2 1 1 1 1 2 3 3 2 3 4 5 5 6 4 6 6 6 8 8 9 9 3 4 5 6 6 5 4 4 3 4 4 4 5 5 5 5 4 4 4 3 3 2 2 2 2 2 3 3 5 5 6 6 6
1 1 2 2 6 7 7 7 6 7 9 7 4 5 7 5 3 5 2 3 7 8 8 8 7 4 4 5 4 3 2 3 3 2 2 1 2 2 3 2 1 3 4 5 7 7 7 7 7 7 7 7 6 3 4 4 5 5 4 4 4 3 3 3 3 4 6 6 4 4 6 5 4 3 3 2 1 1 1 2 2 3 4 4 5 5 6
2 1 5 8 10 9 8 6 6 5 4 5 4 4 2 2 1 1 3 5 6 6 7 6 6 5 5 5 4 3 2 2 1 1 1 2 2 3 3 3 4 5 6 7 8 8 7 5 5 5 5 5 6 6 5 5 4 3 4 5 4 3 2 2 3 3 4 6 5 5 7 6 5 4 3 2 1 1 1 2 2 2 3 3 4 5 5
3 3 1 12 15 5 2 2 6 6 4 3 1 2 4 5 6 5 4 3 6 7 6 6 6 7 4 3 4 5 3 2 2 2 2 1 2 1 2 3 5 5 5 6 6 5 3 2 3 4 4 5 4 5 5 4 3 5 4 4 3 2 1 1 2 3 3 3 5 7 6 5 3 1 3 1 4 5 6 4 4 2 2 2 4 4 4
1 3 5 9 8 7 11 14 10 6 3 4 2 3 3 5 7 6 7 5 2 2 5 7 7 7 5 4 4 5 4 3 2 2 1 1 1 2 2 2 3 3 4 4 4 3 1 1 2 2 3 3 3 3 3 4 4 4 3 2 2 2 2 1 2 1 2 4 3 4 6 5 4 5 12 13 7 5 6 8 9 8 7 4 3 4 4
3 4 6 2 4 9 10 10 8 7 5 4 4 2 5 6 6 7 9 8 4 4 3 2 5 7 6 7 4 4 4 3 2 1 1 0 0 0 0 0 1 2 1 1 1 1 1 2 2 2 2 3 3 2 2 3 4 3 3 3 2 2 1 1 0 1 2 3 3 3 4 4 3 4 7 10 15 15 13 9 8 6 4 3 1 4 4
6 3 5 5 2 6 11 15 12 9 2 4 5 5 5 2 2 4 4 8 10 6 4 2 2 2 5 5 6 5 3 3 3 2 2 1 1 2 2 1 1 1 1 1 1 1 1 1 2 2 2 2 2 3 2 2 2 3 3 2 1 1 1 1 2 2 2 2 3 3 3 3 3 4 5 9 7 6 5 10 9 8 8 6 5 6 6
4 5 6 4 5 7 8 8 9 7 3 3 3 3 1 2 3 1 4 4 3 8 7 5 3 1 3 4 2 2 3 3 3 3 4 4 4 3 3 2 2 1 1 1 1 1 2 2 2 3 4 3 2 2 3 3 3 3 3 3 3 3 3 3 3 3 2 2 2 2 2 2 3 3 5 7 7 7 3 3 3 9 10 8 8 7 8
5 6 7 7 7 7 5 7 6 2 4 2 3 3 4 4 3 3 3 2 3 2 4 7 6 2 3 5 4 3 4 4 5 4 4 4 4 3 3 2 2 1 1 2 2 2 3 3 3 3 3 3 2 2 3 3 3 3 3 2 3 3 3 4 3 3 3 3 3 3 3 4 5 5 2 1 1 6 7 6 4 4 9 12 10 8 9
7 4 8 12 11 8 3 4 8 11 11 8 8 9 4 5 6 4 1 1 1 1 3 4 6 5 3 3 4 3 4 5 5 4 4 3 4 4 3 2 2 2 2 2 2 2 2 2 2 2 2 1 0 0 1 1 1 1 2 2 2 3 4 3 2 2 3 3 4 4 4 4 2 2 3 4 3 3 3 3 2 1 0 4 9 10 9
7 4 4 7 9 11 11 11 8 9 11 10 7 7 7 2 3 3 4 4 4 3 3 4 6 6 5 2 3 4 3 3 3 3 3 3 3 3 2 2 2 2 1 1 1 0 1 1 2 1 1 1 2 1 2 1 1 2 2 2 2 2 1 2 2 2 2 3 4 5 7 7 7 6 6 5 5 4 4 3 2 0 1 3 3 6 7
7 7 5 7 9 10 10 7 8 8 10 8 5 5 5 7 7 7 7 6 6 6 5 4 2 3 4 4 3 4 3 3 3 3 4 3 2 2 2 2 1 1 1 2 1 1 2 2 2 2 1 1 1 2 2 3 3 3 2 2 2 1 2 1 1 2 3 3 4 4 6 8 8 7 7 7 7 5 4 4 3 3 3 4 3 3 6
9 6 7 7 7 7 7 9 8 10 11 9 7 7 8 10 9 8 6 6 6 7 6 5 5 4 4 5 4 3 3 3 4 3 3 3 3 2 1 2 2 3 2 2 1 1 1 1 1 1 1 0 0 1 2 2 2 2 2 2 3 2 1 2 3 3 4 5 5 7 7 7 8 8 7 7 7 6 5 5 5 4 4 5 6 6 7
14 13 11 8 8 9 12 11 9 10 10 9 8 9 9 9 10 7 7 7 6 6 6 6 6 5 4 4 4 4 4 5 4 4 4 4 3 2 1 0 2 1 1 2 2 1 2 1 1 1 2 1 2 2 2 3 2 2 2 2 2 3 3 4 3 3 4 6 7 7 8 8 8 8 7 7 7 6 5 5 5 5 5 5 6 7 7
13 13 14 12 10 11 11 9 9 10 10 8 7 10 11 11 13 13 10 10 10 9 8 6 6 5 4 4 5 5 5 5 5 4 4 4 4 4 3 3 4 4 4 3 2 2 2 1 2 2 2 1 1 1 1 2 2 2 2 1 2 4 6 7 7 6 6 7 7 7 7 7 7 7 7 7 6 5 5 5 5 5 5 6 6 7 7
10 12 11 10 10 10 10 8 9 11 11 10 9 10 10 11 11 11 9 8 7 6 6 5 4 4 4 4 5 5 6 6 5 5 5 5 5 5 4 4 4 4 4 3 3 2 3 3 3 3 2 2 2 2 2 2 1 1 1 2 4 6 7 7 8 8 7 7 7 6 5 4 5 7 7 6 5 5 5 5 4 5 5 6 6 6 6
10 10 12 13 13 13 14 14 11 10 9 9 8 8 8 8 8 6 5 6 7 7 5 5 5 4 5 5 5 5 6 5 4 4 5 5 5 5 5 5 5 5 5 4 3 3 3 3 4 4 4 4 4 3 2 1 1 2 3 5 6 7 7 7 6 6 7 7 7 7 7 7 7 6 6 5 5 4 4 4 4 5 5 5 5 6 8
10 12 14 15 16 17 17 15 13 13 12 10 8 8 7 5 5 5 7 8 9 7 6 6 5 5 6 5 5 5 5 5 5 5 5 5 5 4 3 4 5 4 4 4 4 4 5 5 4 4 5 5 5 4 2 2 4 5 6 6 6 6 6 6 6 7 7 7 6 6 6 7 6 6 5 5 4 4 4 5 4 4 4 5 5 5 6
11 11 11 12 14 16 16 15 14 14 12 10 7 6 6 6 7 8 9 7 5 6 6 5 5 6 6 5 5 5 6 6 6 6 6 5 4 3 3 4 3 3 3 4 6 5 5 5 8 6 4 4 5 5 5 6 6 7 6 6 7 7 7 7 6 7 6 6 6 6 6 7 6 5 5 5 4 4 4 4 4 4 4 4 4 4 4
10 10 11 12 13 14 15 12 11 10 8 6 6 7 8 9 10 8 8 7 7 7 7 6 6 7 6 6 6 7 6 6 6 6 5 4 3 3 3 3 3 3 2 3 5 4 5 5 6 6 4 4 5 5 6 8 5 5 6 6 7 7 6 6 5 5 5 6 6 6 6 5 5 5 5 4 4 4 4 4 4 4 4 4 4 4 5
12 11 11 12 13 13 12 11 9 7 7 8 9 10 12 11 8 7 7 7 6 5 6 8 8 8 7 7 7 7 7 6 7 6 5 4 4 4 4 3 2 2 3 3 3 3 4 5 6 4 4 5 5 6 7 11 10 8 7 6 5 6 6 5 5 5 5 5 4 4 4 4 5 5 5 4 4 4 4 4 4 5 5 5 4 4 5
10 9 8 9 9 9 8 5 6 7 9 11 11 10 8 8 9 9 9 9 6 6 9 9 8 7 7 8 7 7 7 7 7 6 5 4 3 4 4 3 3 3 3 2 3 3 3 3 3 4 4 5 6 7 8 9 9 6 5 5 6 6 5 5 5 6 5 5 4 4 5 5 5 5 5 5 5 5 5 6 6 6 6 5 5 6 6
7 7 7 6 4 3 2 4 5 6 8 9 3 5 9 12 12 12 10 9 7 7 7 7 6 7 7 8 7 6 6 7 6 5 6 5 5 5 5 4 4 4 4 4 4 4 5 6 4 4 4 4 4 5 5 6 5 5 5 5 5 5 5 5 5 5 5 5 5 5 5 5 5 5 6 6 6 6 6 6 6 5 5 5 5 5 5
6 6 3 2 4 5 8 9 11 13 14 14 13 10 8 8 12 12 10 9 8 7 7 6 6 7 7 7 7 7 8 6 5 5 5 5 5 4 4 4 3 3 3 3 4 4 4 3 4 4 4 4 5 5 5 6 5 4 4 4 4 4 4 4 4 4 4 5 5 5 5 5 5 5 5 5 5 6 5 5 5 5 5 5 5 5 5
5 4 1 4 6 8 10 9 10 12 12 12 11 7 5 6 4 6 7 7 7 6 6 5 6 8 8 8 8 8 7 6 5 5 3 3 4 5 5 5 5 5 7 6 6 5 4 4 5 5 4 5 5 7 6 4 4 3 3 3 3 3 4 4 4 4 4 5 5 5 5 5 5 5 5 5 5 5 5 5 5 4 4 4 4 4 4
6 5 4 4 4 6 7 8 9 12 14 13 11 6 4 5 7 6 4 6 7 7 6 6 8 9 9 9 9 9 6 6 6 5 4 2 1 1 3 5 4 5 7 5 4 4 4 4 4 4 5 5 5 6 5 3 3 3 3 3 3 3 4 4 4 4 5 5 5 5 5 5 5 5 5 4 5 5 5 5 4 4 4 4 4 3 3
3 3 4 5 6 6 6 7 7 8 9 8 8 7 6 5 6 5 3 5 6 7 7 8 8 9 9 10 9 9 7 6 6 6 5 4 4 4 3 5 4 6 7 4 4 4 4 4 5 7 9 9 8 6 4 3 3 2 2 2 3 3 4 4 4 4 5 5 5 5 5 5 4 4 4 4 4 4 4 3 4 4 3 3 3 3 3
1 1 4 5 6 6 6 5 5 5 5 7 7 5 4 4 5 5 5 6 6 7 7 7 8 8 8 8 8 8 6 6 6 7 7 6 6 5 4 5 5 5 6 6 4 4 4 4 7 8 7 8 7 6 3 2 2 2 2 2 2 3 3 3 4 4 4 4 4 4 4 4 4 4 3 3 3 3 3 3 3 3 3 3 3 2 2
2 2 2 4 5 5 6 4 4 5 7 7 7 5 4 3 4 4 5 5 6 6 6 7 8 8 8 8 8 6 7 6 5 3 1 3 4 6 6 5 5 5 8 8 4 4 4 9 10 9 9 8 7 3 3 2 2 1 1 1 2 2 3 3 3 3 4 4 4 3 4 3 3 3 3 3 3 3 3 3 3 3 2 2 2 2 2
3 2 2 3 3 3 5 4 4 5 6 6 5 4 4 3 4 3 4 5 5 5 5 6 7 7 8 8 8 8 7 6 4 2 1 2 4 6 7 7 7 10 8 5 5 5 6 7 8 10 9 8 5 3 3 2 2 1 1 1 1 2 2 3 3 3 3 3 3 3 3 2 3 3 3 3 3 3 3 3 3 3 3 3 3 3 3
1 1 1 2 3 4 3 3 3 4 4 4 5 5 5 4 5 5 5 4 4 4 5 5 5 6 7 6 6 6 7 8 7 4 3 4 5 6 6 5 6 7 6 5 6 6 11 11 11 10 9 8 4 2 2 2 2 2 2 2 2 2 2 3 3 3 3 3 4 4 3 3 3 3 3 2 2 2 2 3 3 4 3 3 3 3 3
1 1 1 2 3 5 5 4 4 3 3 4 5 4 4 5 4 4 4 4 5 5 5 5 6 6 6 5 6 5 4 1 1 3 5 5 6 5 5 5 7 8 5 4 4 4 6 8 10 10 9 5 3 2 2 2 2 2 2 2 2 2 3 3 3 3 3 3 3 3 3 3 3 3 3 2 2 2 3 3 3 3 3 3 4 4 4
1 1 2 3 3 2 2 2 2 2 3 3 3 4 4 4 4 4 4 4 5 5 5 5 6 6 5 5 5 4 3 2 1 2 5 5 5 4 5 5 5 7 6 4 4 3 7 8 7 6 4 3 3 3 2 3 3 3 3 3 3 3 3 2 3 2 3 3 3 3 3 3 3 3 3 2 2 2 3 3 3 3 2 3 4 3 3
1 1 2 2 2 2 2 3 3 2 2 3 4 4 5 4 4 4 4 5 5 6 6 6 5 5 5 4 4 3 3 3 2 4 5 5 5 5 5 5 5 5 5 4 4 4 5 5 4 4 3 3 3 3 3 3 3 4 4 4 4 4 4 4 4 5 4 3 3 3 3 3 3 4 3 3 3 3 3 3 4 4 6 4 4 4 4
4 3 3 2 2 2 1 1 1 1 2 3 3 4 4 3 3 4 4 6 6 6 6 7 6 3 3 3 4 4 3 3 3 4 5 6 5 5 5 6 4 4 5 4 4 4 4 4 4 4 3 3 3 3 3 4 4 4 4 4 4 4 4 5 5 5 5 5 5 4 4 4 4 4 4 3 3 3 3 3 3 3 4 4 4 3 4
Wind_Direction
141 41 76 235 118 68 156 164 155 172 171 172 196 206 113 162 227 267 94 157 206 252 251 275 279 253 238 243 231 221 215 191 174 165 174 182 183 180 183 184 179 180 179 183 186 190 199 194 193 203 209 217 220 229 235 231 229 229 226 230 239 244 244 247 252 257 264 271 265 266 266 267 267 271 274 275 278 278 275 275 279 283 287 286 286 283 278
114 120 33 294 140 111 116 131 161 162 171 193 209 166 180 195 230 296 42 185 239 250 275 272 271 298 264 271 288 208 199 196 180 181 186 185 181 181 184 184 186 187 184 180 188 191 197 196 199 202 205 212 217 221 226 223 223 225 209 224 236 243 246 249 253 258 263 265 269 272 270 270 275 280 283 285 286 285 285 287 287 285 286 283 281 284 288
98 46 106 97 89 129 129 124 117 119 125 136 184 214 143 247 289 274 254 252 271 249 233 255 274 311 271 260 238 223 207 186 185 186 187 185 184 186 185 182 186 184 180 186 190 195 199 199 200 202 203 210 214 224 227 222 217 215 205 226 233 239 247 249 252 257 258 264 273 275 275 278 280 284 288 290 287 286 289 289 289 288 283 283 285 286 286
158 51 56 70 77 79 112 156 190 168 165 190 185 216 182 192 233 198 214 264 265 268 187 244 262 258 238 239 224 210 200 193 188 192 188 184 186 187 186 185 179 178 184 190 195 200 203 201 199 200 203 207 210 220 221 218 217 201 204 223 236 240 246 252 252 253 258 270 276 277 276 277 285 291 292 290 288 289 292 293 296 293 286 285 288 289 287
156 91 203 133 136 149 207 218 221 193 194 154 113 61 184 213 191 214 236 258 271 295 38 288 255 229 255 254 237 208 198 197 195 194 191 189 189 186 182 182 183 185 190 193 196 202 202 199 199 205 199 199 212 216 214 213 195 203 216 225 231 243 247 251 257 253 253 264 272 277 277 282 289 293 292 289 290 293 295 298 293 288 291 292 294 295 287
133 118 128 138 170 221 211 89 9 162 191 184 181 193 202 210 190 220 231 281 308 260 237 236 271 280 263 278 291 253 217 195 201 202 195 191 189 187 188 189 187 186 187 194 201 204 201 203 206 202 197 204 216 215 214 191 196 208 216 225 231 244 249 252 253 254 255 257 265 272 279 284 287 289 287 287 291 288 287 287 286 290 295 297 298 296 293
141 124 145 161 223 227 84 75 188 359 50 174 203 206 229 205 219 255 267 263 253 245 245 248 255 274 281 265 273 257 221 208 198 194 192 188 186 188 189 188 187 186 191 195 200 205 211 207 201 196 202 209 214 213 204 200 198 204 215 230 234 238 246 251 250 250 249 250 258 269 275 277 282 282 283 287 287 290 294 295 296 297 299 302 299 296 296
82 166 152 222 212 21 292 264 107 96 81 80 79 273 256 245 228 214 234 247 256 257 248 234 217 244 274 284 250 246 221 201 200 189 192 192 190 190 191 186 187 186 191 197 200 209 203 192 202 204 208 202 205 213 197 204 198 201 214 226 237 236 240 247 249 248 246 250 254 260 268 273 274 280 283 283 291 303 302 297 293 287 280 273 281 289 294
203 170 191 245 39 299 162 173 188 184 189 164 198 278 247 221 196 178 214 238 249 248 235 205 199 190 199 275 250 207 208 191 201 201 196 190 192 192 190 186 188 192 196 198 204 195 185 199 201 206 204 195 201 205 200 208 199 204 209 225 235 232 237 245 248 248 243 247 253 256 259 267 273 279 286 296 302 310 301 300 299 294 292 290 288 286 289
198 160 195 245 238 246 212 235 121 164 351 141 135 218 258 219 216 198 214 239 239 206 172 181 164 148 205 233 192 167 185 185 192 199 198 184 181 178 172 182 192 188 198 203 203 203 210 210 210 204 195 194 196 200 208 208 206 209 210 230 233 231 235 241 245 247 242 239 245 249 250 259 270 279 289 287 293 294 293 301 296 301 302 296 291 288 286
154 184 217 205 225 239 155 233 242 89 136 133 121 220 263 227 219 190 202 226 208 198 181 162 168 172 211 214 141 143 170 179 186 184 192 190 190 187 191 192 196 200 196 196 201 205 213 220 210 199 192 194 198 203 210 214 215 215 222 232 231 230 237 245 250 250 245 233 238 245 249 258 261 275 287 293 293 285 283 279 286 293 297 295 296 292 293
188 185 205 226 189 225 181 251 82 183 155 158 164 262 275 232 191 186 180 212 198 187 174 159 185 201 207 173 119 130 171 174 176 178 174 178 182 190 195 207 210 198 173 178 206 215 216 221 202 184 187 196 206 203 209 212 218 224 230 234 231 236 251 255 252 249 240 234 237 240 246 252 251 258 269 274 281 294 288 286 302 308 299 296 294 299 303
145 198 218 359 256 249 261 283 88 142 187 201 209 231 284 156 202 185 189 208 183 162 164 179 186 222 353 42 79 144 157 157 177 187 188 193 185 185 194 204 193 197 203 208 214 214 221 208 176 178 185 195 206 205 203 209 227 231 234 224 225 246 248 248 248 246 240 232 238 240 240 246 252 258 254 264 278 278 294 306 303 300 307 309 302 300 305
185 185 238 242 312 280 346 85 132 150 156 192 222 238 24 186 199 202 203 197 170 173 176 179 181 141 164 120 97 143 169 177 168 176 175 176 192 214 217 198 193 208 212 218 231 238 226 176 179 179 185 199 206 197 201 222 229 232 220 211 227 233 236 239 245 246 244 238 233 241 234 223 232 246 233 232 254 267 285 293 300 305 310 309 306 304 307
65 114 215 44 259 92 89 121 108 110 242 259 9 329 245 220 240 180 204 204 182 177 171 163 179 156 144 114 132 161 170 167 168 178 177 186 196 201 201 212 215 209 213 222 226 230 200 180 177 181 190 203 205 197 213 227 222 207 181 206 222 226 228 233 237 246 249 244 238 224 222 218 230 246 246 245 240 245 271 294 304 312 313 315 312 313 316
238 159 179 205 100 81 193 209 229 187 231 64 48 341 294 214 228 205 188 211 189 187 165 163 176 180 156 138 135 152 168 182 155 171 193 204 215 218 222 226 222 215 232 237 241 188 169 167 181 183 194 203 202 203 223 224 180 163 180 210 215 219 223 231 239 248 253 253 241 225 218 216 224 238 248 259 275 257 291 300 311 313 317 319 317 319 324
216 200 209 103 102 267 301 264 280 285 299 316 327 263 274 288 245 216 226 202 189 193 172 161 163 163 195 145 155 158 164 170 178 180 197 209 227 245 266 289 0 263 261 274 277 254 191 188 188 197 203 207 201 215 227 176 174 190 204 209 209 210 224 243 252 260 263 256 235 200 207 206 209 220 240 241 279 273 300 311 312 315 316 319 318 317 317
302 270 266 315 292 268 271 244 247 275 285 283 243 262 269 248 260 209 212 189 174 179 171 155 176 172 156 149 148 137 122 139 139 118 218 248 260 267 268 262 261 264 265 263 259 252 214 192 198 203 207 206 208 222 181 157 185 199 205 207 216 229 243 259 268 267 265 255 223 215 233 211 207 211 236 248 262 287 306 307 314 312 314 321 322 324 321
318 242 141 241 312 306 282 284 271 261 255 258 244 226 229 260 236 205 240 195 169 166 166 175 164 144 142 144 131 129 124 133 133 158 185 168 205 240 256 239 232 241 240 247 245 239 235 200 201 208 207 211 219 201 179 184 192 198 204 214 229 235 246 267 276 270 262 257 209 159 214 221 210 206 213 226 225 253 284 310 317 318 320 326 328 334 331
216 325 14 342 310 267 268 272 288 281 258 248 249 253 251 141 131 153 155 142 140 152 168 174 155 140 157 149 137 138 134 115 131 154 208 221 214 218 226 232 225 232 228 233 238 232 233 204 190 204 198 205 209 218 222 216 207 193 216 220 224 228 242 266 277 271 265 245 214 195 200 213 222 220 229 232 188 75 18 359 321 332 337 343 340 337 334
287 239 64 355 334 301 260 284 255 256 273 278 206 146 144 147 136 120 117 140 154 171 161 154 154 143 167 152 144 153 136 149 190 206 217 213 258 272 244 239 228 235 241 245 249 248 228 143 173 186 199 207 204 202 216 212 193 205 208 201 211 224 239 240 261 252 244 235 215 211 200 197 219 273 290 162 103 83 44 24 19 5 14 6 346 338 332
277 51 10 5 359 324 320 317 333 324 311 273 188 132 152 150 132 133 122 113 126 175 159 167 162 150 152 161 161 166 161 174 174 178 178 226 236 253 264 278 272 271 273 273 271 249 186 121 165 184 185 188 192 205 191 185 187 199 190 195 195 210 197 256 311 298 250 231 208 214 216 220 194 104 50 36 36 106 97 72 60 43 37 61 18 355 7
286 337 7 15 252 264 263 287 328 336 327 315 294 219 169 170 158 150 135 132 139 155 181 245 160 145 161 171 165 155 165 190 167 69 62 74 275 271 146 266 283 283 303 299 260 204 195 193 198 191 185 177 183 184 168 176 186 177 169 171 205 217 191 262 173 307 304 268 205 188 222 221 198 145 110 59 55 82 105 109 100 103 101 117 19 0 24
270 307 351 344 298 308 308 311 310 304 275 294 307 320 336 345 148 152 152 147 149 154 156 161 348 145 152 146 158 173 151 103 115 132 129 95 49 60 68 28 6 332 326 294 286 293 140 189 179 187 191 183 174 160 158 166 170 159 155 161 187 225 347 225 214 225 228 241 247 220 204 206 174 176 159 126 104 56 96 118 115 108 106 102 95 81 48
312 338 319 308 276 272 281 285 290 284 219 231 286 298 273 234 203 209 160 154 166 159 166 172 136 97 139 126 136 137 128 126 127 122 128 117 99 90 87 91 94 111 134 130 155 186 204 198 192 197 202 182 168 186 183 179 178 160 156 169 197 234 220 224 203 203 213 213 221 217 185 200 202 209 193 158 147 146 185 213 136 107 90 81 79 73 57
278 302 302 282 259 262 275 302 292 285 341 312 265 230 212 219 225 195 209 215 199 208 169 155 145 144 149 148 166 154 131 111 122 131 118 109 112 107 97 100 120 145 155 170 186 201 209 213 208 206 197 182 184 194 202 182 190 184 197 217 218 221 225 220 213 209 208 198 193 170 140 133 137 149 135 88 182 177 163 161 180 187 114 83 55 42 51
296 292 306 309 304 307 330 326 310 322 321 317 298 288 234 193 189 201 166 181 206 161 170 155 135 134 117 113 125 118 117 128 124 93 86 93 93 79 74 91 102 124 152 161 172 180 197 191 192 189 187 123 123 282 257 210 219 201 205 206 213 212 229 254 261 236 234 204 181 147 125 109 121 132 151 143 163 185 191 175 184 171 163 111 91 58 30
284 268 230 272 292 305 311 313 318 312 308 302 298 287 304 303 153 176 191 173 169 151 140 154 150 148 134 150 160 134 124 104 87 85 80 78 82 87 89 100 122 132 123 128 129 174 182 173 169 155 103 45 13 351 357 343 298 255 235 231 238 256 173 177 206 215 200 169 141 140 151 158 157 151 149 155 156 146 130 111 114 93 73 34 28 68 36
260 265 248 239 257 274 290 300 296 291 289 284 265 259 236 241 220 204 203 193 170 165 165 161 151 151 142 138 142 118 103 95 88 75 71 74 74 84 117 142 144 137 139 140 145 153 156 151 157 158 122 61 11 357 340 335 302 277 258 252 281 284 268 258 226 144 124 114 129 150 141 144 145 141 137 132 123 115 99 91 83 71 51 31 15 38 24
278 261 255 265 271 268 276 285 288 292 292 289 269 246 227 228 226 217 196 172 176 189 170 149 159 158 151 130 118 115 117 98 84 79 78 71 65 64 95 143 151 130 127 104 88 90 116 126 140 154 115 125 7 350 317 303 295 293 304 329 323 307 212 160 148 139 137 132 123 120 122 120 120 123 123 120 111 105 102 89 76 62 44 39 34 27 20
289 289 286 274 272 279 279 277 276 277 275 271 259 254 235 224 231 212 192 182 191 189 164 175 174 154 142 125 112 99 89 88 88 82 75 65 54 46 35 240 238 204 104 94 109 138 150 142 113 81 48 352 320 312 302 305 326 332 326 322 316 63 88 110 118 137 119 118 122 125 121 119 120 119 115 110 109 107 102 93 75 62 54 48 39 33 23
291 292 293 290 281 274 269 261 265 266 265 265 247 239 229 211 216 215 198 188 191 180 165 173 172 161 129 99 100 101 100 96 91 86 82 76 71 71 77 78 84 95 106 110 100 81 64 41 43 33 13 352 332 302 282 286 291 321 358 70 88 114 102 107 120 114 127 126 124 118 112 110 112 115 111 110 113 116 112 98 79 66 61 60 51 39 28
293 294 292 289 285 273 264 256 256 262 262 255 236 235 233 227 229 221 194 175 156 155 164 161 131 99 94 103 108 113 111 109 98 87 76 72 73 78 87 97 100 101 92 79 66 52 33 19 2 344 333 325 312 297 275 262 264 261 202 139 119 110 110 97 97 102 95 88 84 71 78 92 105 102 102 111 112 109 105 98 90 78 75 78 72 57 36
276 271 274 278 278 279 277 274 264 260 256 254 252 249 248 240 238 227 161 156 144 136 127 113 101 107 117 118 123 124 126 118 96 89 89 95 96 98 93 91 90 83 79 69 54 41 28 14 357 358 356 355 351 329 315 241 157 156 122 112 102 101 99 103 97 95 95 90 89 97 100 99 92 100 109 110 112 113 110 106 99 93 95 92 87 74 41
274 271 271 271 271 268 265 262 260 261 262 258 241 231 227 211 196 174 152 153 146 141 132 130 130 122 108 106 109 111 101 95 110 119 117 116 116 110 100 97 93 90 79 58 38 26 11 0 2 8 13 10 19 27 64 115 117 109 109 111 113 112 112 110 103 106 107 104 102 100 96 97 102 105 104 107 109 111 111 106 103 98 103 101 91 84 66
283 282 277 270 264 263 263 262 259 259 263 258 246 211 187 182 165 156 157 141 115 112 113 111 107 100 100 104 105 99 97 104 117 122 124 126 119 98 98 91 88 86 81 64 34 21 19 35 45 38 19 27 41 61 78 89 93 99 104 107 107 103 105 103 99 98 98 104 104 103 103 106 106 105 106 108 104 101 105 107 105 106 102 95 92 87 82
288 280 277 277 273 268 263 255 249 247 236 217 181 172 168 171 173 160 141 136 137 128 124 123 113 107 100 94 94 98 106 118 124 127 129 131 119 111 97 91 76 71 53 56 33 27 40 48 62 64 41 50 61 76 95 105 106 107 111 114 116 114 108 106 101 102 104 104 107 111 114 111 106 104 104 104 106 108 107 109 107 100 93 91 97 96 87
293 294 288 280 276 271 264 255 243 216 193 187 186 180 173 171 159 131 107 84 72 87 99 98 93 94 103 110 108 111 113 122 129 126 131 130 128 113 92 80 66 43 53 50 36 43 49 64 67 56 57 66 71 80 88 89 90 94 100 98 94 100 107 113 110 108 105 101 101 105 110 106 109 109 107 107 108 110 110 112 112 111 108 106 98 93 91
298 300 298 298 288 273 263 248 221 205 194 191 186 180 171 136 118 105 98 91 86 82 79 84 103 120 124 119 115 121 127 135 143 141 131 117 108 102 85 74 67 65 69 82 81 73 79 87 86 81 80 87 91 91 90 89 92 95 99 105 99 99 104 106 100 98 97 103 103 102 102 102 105 108 110 107 104 104 107 110 115 115 110 102 96 92 88
301 307 312 318 342 12 77 93 67 54 33 18 23 106 102 98 88 82 81 88 93 98 107 125 136 135 130 127 130 135 143 149 140 131 136 132 127 118 115 97 87 87 90 95 90 89 100 99 88 79 73 67 72 83 79 73 83 90 91 90 95 98 95 96 102 104 106 104 104 103 103 105 106 108 114 114 111 111 114 115 114 109 105 100 98 94 92
316 318 324 36 66 76 83 82 79 72 63 53 45 43 51 98 126 131 139 139 138 127 124 149 149 138 139 141 142 142 145 138 130 137 140 147 143 142 127 109 105 107 115 105 96 98 92 76 84 91 80 76 77 75 88 66 66 75 78 86 94 104 111 109 109 110 113 114 114 112 109 109 109 108 107 112 114 114 113 114 112 110 107 106 100 96 92
337 328 24 101 101 100 101 102 98 92 91 87 80 65 351 341 39 87 99 101 108 115 139 148 133 135 139 138 140 139 140 139 128 134 157 168 152 144 126 119 121 105 98 103 108 107 101 95 83 82 89 88 86 74 74 78 74 80 88 92 95 98 106 108 108 104 106 108 111 109 110 108 107 107 110 110 110 116 120 120 119 116 112 107 104 101 99
353 21 41 66 93 108 109 102 95 97 95 98 108 114 96 71 66 49 83 114 127 134 137 135 130 132 139 142 144 145 140 140 143 141 131 117 90 12 111 124 125 118 119 109 107 103 98 93 98 95 93 91 95 99 89 76 77 82 88 96 93 98 99 101 105 111 115 115 112 111 110 113 114 114 114 112 113 117 120 126 129 121 119 115 114 111 107
348 25 43 55 63 64 70 80 96 100 101 104 105 113 123 119 119 145 163 134 137 142 145 144 145 147 149 152 151 152 153 150 148 152 144 131 113 91 107 127 124 124 124 125 116 109 107 104 100 105 102 97 94 76 65 57 52 62 72 90 111 111 113 117 119 122 120 121 123 121 117 117 117 117 118 123 125 122 126 128 125 126 123 125 123 123 120
102 37 83 86 84 74 58 55 73 84 86 90 92 99 114 126 142 160 156 147 142 148 152 149 151 155 155 158 161 159 150 155 158 156 155 153 153 152 158 141 135 136 135 129 120 117 114 115 115 117 111 104 97 92 78 73 62 59 66 94 111 118 120 121 124 125 124 124 123 122 124 126 124 125 129 122 127 134 137 138 134 136 140 142 141 146 137
120 99 92 93 78 87 102 100 100 100 98 101 108 109 112 134 148 147 154 146 144 152 156 160 162 161 160 159 152 135 139 155 168 186 177 170 163 152 162 161 149 142 141 142 125 129 120 122 127 127 125 127 123 112 91 83 76 86 80 103 119 136 139 131 133 134 136 137 134 137 140 140 135 135 138 146 143 144 133 134 147 160 160 161 166 156 154
124 97 87 92 93 78 97 113 124 113 113 120 125 121 127 147 148 137 140 145 148 149 152 159 164 163 164 164 155 150 159 166 172 186 180 123 129 142 154 159 152 149 155 156 149 150 146 150 147 145 142 135 129 106 109 112 107 95 99 95 121 135 137 139 140 139 145 142 134 127 127 137 141 141 141 147 156 164 155 174 183 172 171 167 164 169 180
92 120 151 129 110 104 111 133 143 141 139 122 119 132 139 142 146 144 145 145 146 150 151 158 163 168 174 172 167 172 173 171 168 171 186 163 157 154 162 174 167 163 162 154 160 157 160 158 153 144 136 134 131 124 131 122 137 129 132 135 134 135 141 145 155 152 150 147 154 168 164 161 163 170 172 181 181 185 188 186 188 191 192 192 188 172 175
92 111 86 97 128 150 164 164 150 128 114 110 120 130 137 139 133 137 141 146 152 160 166 170 175 179 178 179 183 187 183 199 276 162 161 171 163 166 164 157 154 162 175 187 179 177 162 151 144 140 141 144 146 145 152 147 150 161 160 151 154 147 152 152 153 157 156 158 172 172 175 175 177 182 184 187 186 183 184 188 185 194 179 168 172 174 175
135 139 141 155 163 162 128 99 88 82 100 124 134 141 149 152 156 162 165 169 175 178 178 178 184 184 182 181 193 187 176 158 75 120 145 157 160 158 158 166 168 179 189 188 177 160 138 141 139 151 163 163 153 163 162 167 172 179 173 172 171 166 151 136 117 133 174 170 179 175 184 186 182 180 195 190 189 189 189 186 188 132 121 210 184 187 180
83 67 56 48 36 36 31 19 26 87 129 141 151 157 164 183 186 173 180 181 181 186 191 183 183 181 181 181 172 158 157 158 127 150 155 158 166 166 169 174 175 180 180 187 181 175 161 172 178 187 193 188 174 177 180 186 188 180 188 190 185 185 167 178 188 185 193 190 184 188 191 186 186 192 200 197 189 191 187 186 188 182 193 205 185 192 192
49 43 47 42 45 47 29 28 25 128 151 161 162 168 177 180 180 178 182 190 198 199 192 184 182 165 173 163 159 157 158 156 148 155 161 164 170 172 175 179 172 173 174 186 184 183 178 167 173 193 200 203 200 192 176 184 202 201 196 196 195 197 194 195 194 196 193 195 207 201 195 203 197 201 207 202 203 193 191 199 199 195 192 203 197 199 202